Regional Weather Roundup
Issued by NWS State College, PA

Home | Current Version | Previous Version | Graphics & Text | Print | Product List | Glossary On
Versions: 1 2 3 4 5 6 7 8 9 10 11 12 13 14 15 16 17 18 19 20 21 22 23 24 25 26 27 28 29 30 31 32 33 34 35 36 37 38 39 40 41 42 43 44 45 46 47 48 49 50
000
ASUS41 KCTP 060303
RWRCTP

REGIONAL WEATHER ROUNDUP
NATIONAL WEATHER SERVICE STATE COLLEGE PA
1100 PM EDT TUE MAY 05 2015

Note: "fair" indicates few or no clouds below 12,000 feet with no
significant weather and/or obstructions to visibility.

* = STATION THAT DOES NOT REPORT PRECIPITATION /E.G. RAIN...SNOW...ETC/
    THUNDER OR FOG.

PAZ002>004-007>009-013>016-020>023-029>032-060400-
WESTERN PENNSYLVANIA

CITY           SKY/WX    TMP DP  RH WIND       PRES   REMARKS
ERIE           LGT RAIN  52  50  93 NE5       30.26S FOG
MEADVILLE      FOG       59  58  96 NE3       30.26S VSB 1/4
FRANKLIN*      CLOUDY    61  55  82 N6        30.27S
NEW CASTLE     FAIR      62  62 100 CALM      30.25S
BEAVER COUNTY  NOT AVBL
BUTLER*        MOCLDY    61  57  88 E5        30.25F
PITTSBURGH INT FAIR      64  62  93 CALM      30.23R
PITTSBURGH     PTCLDY    66  56  70 CALM      30.23S
INDIANA*       CLOUDY    63  59  88 CALM      30.29R
LATROBE        NOT AVBL
WASHINGTON CO* PTCLDY    59  55  88 CALM      30.26R
$$

PAZ004>006-010>012-017>019-024>028-033>037-041-042-045-046-049>053-060400-
CENTRAL PENNSYLVANIA

CITY           SKY/WX    TMP DP  RH WIND       PRES   REMARKS
BRADFORD       LGT RAIN  56  54  93 NE3       30.29S FOG
DUBOIS         MOCLDY    60  56  86 NE6       30.26S
CLEARFIELD     MOCLDY    60  57  89 N5        30.27S
JOHNSTOWN      PTCLDY    65  55  70 CALM      30.27S
ALTOONA        CLOUDY    67  55  65 NW3       30.26S
STATE COLLEGE  MOCLDY    62  60  93 E3        30.26S
WILLIAMSPORT   LGT RAIN  65  61  87 W6        30.24R
SELINSGROVE    CLOUDY    64  62  93 CALM      30.24S
FT INDIANTOWN  DRIZZLE   66  60  81 CALM      30.22S
CAPITAL CITY   CLOUDY    68  61  78 CALM      30.21S
HARRISBURG     CLOUDY    69  62  78 N5        30.21S
YORK           CLOUDY    68  58  70 CALM      30.22S
$$

PAZ038>040-043-044-047-048-054-055-060>062-067>071-060400-
EASTERN PENNSYLVANIA

CITY           SKY/WX    TMP DP  RH WIND       PRES   REMARKS
SCRANTON       CLOUDY    71  44  37 N7        30.23S
MOUNT POCONO   CLOUDY    65  51  60 N3        30.25S
ALLENTOWN      CLOUDY    67  56  67 SW3       30.21R
QUAKERTOWN*    FAIR      66  59  77 CALM      30.22S
READING        LGT RAIN  70  59  68 CALM      30.20F
LANCASTER      CLOUDY    69  57  65 NW3       30.20F
COATESVILLE    MOCLDY    72  57  60 CALM      30.23S
POTTSTOWN      MOCLDY    66  59  78 CALM      30.22S
BLUE BELL      MOCLDY    72  59  64 CALM      30.20S
DOYLESTOWN     MOCLDY    69  55  60 CALM      30.20S
WILLOW GROVE   NOT AVBL
NORTH PHILA    CLOUDY    74  56  53 W3        30.22R
PHILADELPHIA   CLOUDY    75  58  55 SW7       30.21R
$$


USA.gov is the U.S. government's official web portal to all federal, state and local government web resources and services.